Location: Unspecified
(0.0000°N, 0.0000°E)
Time: 12:34:21
(UTC+00:00)

S-56A Canister/Altair - All Passes

Search period start: 24 April 2018 00:00
Search period end: 04 May 2018 00:00
Orbit: 632 x 2501 km, 38.9° (Epoch: 23 April)

Date Brightness Start Highest point End Pass type
(mag) Time Alt. Az. Time Alt. Az. Time Alt. Az.
24 Apr - 01:16:33 10° WSW 01:25:37 71° NW 01:39:01 10° NE visible
24 Apr - 03:24:16 10° WNW 03:33:10 24° NNW 03:43:52 10° NNE visible
24 Apr - 10:01:05 10° NNW 10:08:32 18° NNE 10:14:36 10° ENE daylight
24 Apr - 12:05:07 10° NW 12:15:30 61° NE 12:22:14 10° ESE daylight
24 Apr - 14:13:28 10° W 14:19:27 23° SW 14:24:01 10° S daylight
24 Apr - 22:42:34 10° S 22:48:09 23° SE 22:55:33 10° E night (unlit)
25 Apr - 00:44:03 10° SW 00:52:32 80° NW 01:05:25 10° NE visible
25 Apr - 02:50:50 10° W 02:59:38 26° NNW 03:10:38 10° NNE visible
25 Apr - 09:27:55 10° N 09:35:08 17° NNE 09:41:11 10° ENE daylight
25 Apr - 11:31:42 10° NW 11:42:36 53° NE 11:49:48 10° ESE daylight
25 Apr - 13:39:30 10° WNW 13:46:56 31° SW 13:52:17 10° SSE daylight
25 Apr - 22:11:06 10° S 22:15:30 17° SE 22:20:58 10° E night (unlit)
26 Apr - 00:11:39 10° SW 00:19:34 89° SE 00:31:46 10° NE visible
26 Apr - 02:17:37 10° W 02:26:12 29° NNW 02:37:21 10° NNE visible
26 Apr - 08:54:48 10° N 09:01:38 15° NNE 09:07:33 10° NE daylight
26 Apr - 10:58:17 10° NNW 11:09:37 47° NE 11:17:14 10° ESE daylight
26 Apr - 13:05:37 10° WNW 13:14:22 40° SW 13:20:23 10° SSE daylight
26 Apr - 21:40:15 10° SSE 21:42:52 12° SE 21:45:49 10° ESE night (unlit)
26 Apr - 23:39:21 10° SW 23:46:42 77° SE 23:58:06 10° NE visible
27 Apr - 01:44:34 10° W 01:52:51 32° NNW 02:04:02 10° NNE visible
27 Apr - 03:59:46 10° NNW 04:02:20 11° NNW 04:05:00 10° N visible
27 Apr - 08:21:45 10° N 08:28:02 14° NNE 08:33:39 10° NE daylight
27 Apr - 10:24:52 10° NNW 10:36:30 42° NE 10:44:35 10° ESE daylight
27 Apr - 12:31:47 10° WNW 12:41:45 50° SW 12:48:22 10° SSE daylight
27 Apr - 23:07:09 10° SW 23:13:57 64° SE 23:24:25 10° ENE night (unlit)
28 Apr - 01:11:41 10° W 01:19:36 35° NNW 01:30:40 10° NNE visible
28 Apr - 03:24:44 10° NW 03:28:34 12° NNW 03:32:39 10° N visible
28 Apr - 07:48:51 10° N 07:54:20 13° NNE 07:59:23 10° NE daylight
28 Apr - 09:51:28 10° NNW 10:03:18 38° NE 10:11:48 10° E daylight
28 Apr - 11:58:00 10° WNW 12:09:02 62° SW 12:16:14 10° SE daylight
28 Apr - 22:35:03 10° SSW 22:41:17 52° SE 22:50:42 10° ENE night (unlit)
29 Apr - 00:38:54 10° W 00:46:26 39° NW 00:57:18 10° NNE visible
29 Apr - 02:50:23 10° NW 02:54:53 13° NNW 02:59:52 10° N visible
29 Apr - 07:16:14 10° N 07:20:32 12° NNE 07:24:39 10° NE daylight
29 Apr - 09:18:05 10° NNW 09:30:00 34° NNE 09:38:53 10° E daylight
29 Apr - 11:24:14 10° NW 11:36:14 74° SW 11:44:01 10° SE daylight
29 Apr - 13:36:51 10° WSW 13:40:14 13° SW 13:43:12 10° SSW daylight
29 Apr - 22:03:02 10° SSW 22:08:43 40° SE 22:16:57 10° ENE night (unlit)
30 Apr - 00:06:16 10° WSW 00:13:23 43° NW 00:23:56 10° NNE visible
30 Apr - 02:16:24 10° NW 02:21:19 14° NNW 02:26:54 10° N visible
30 Apr - 06:44:20 10° N 06:46:40 10° NNE 06:48:57 10° NNE daylight
30 Apr - 08:44:45 10° NNW 08:56:37 31° NNE 09:05:49 10° E daylight
30 Apr - 10:50:31 10° NW 11:03:19 86° SW 11:11:42 10° SE daylight
30 Apr - 13:01:39 10° W 13:07:32 18° SW 13:12:16 10° S daylight
30 Apr - 21:31:08 10° SSW 21:36:12 31° SE 21:43:11 10° ENE night (unlit)
30 Apr - 23:33:43 10° WSW 23:40:26 49° NW 23:50:35 10° NE visible
01 May - 01:42:43 10° NW 01:47:51 15° NNW 01:53:51 10° N visible
01 May - 08:11:29 10° NNW 08:23:08 28° NNE 08:32:34 10° E daylight
01 May - 10:16:50 10° NW 10:30:17 84° NE 10:39:17 10° SE daylight
01 May - 12:26:59 10° W 12:34:50 23° SW 12:40:47 10° S daylight
01 May - 20:59:22 10° S 21:03:43 23° SE 21:09:20 10° E night (unlit)
01 May - 23:01:15 10° WSW 23:07:35 56° NW 23:17:14 10° NE night (unlit)
02 May - 01:09:16 10° WNW 01:14:29 16° NNW 01:20:46 10° N visible
02 May - 07:38:17 10° NNW 07:49:34 26° NNE 07:59:06 10° E daylight
02 May - 09:43:12 10° NW 09:57:09 74° NE 10:06:45 10° SE daylight
02 May - 11:52:34 10° WNW 12:02:05 30° SW 12:09:00 10° SSE daylight
02 May - 20:27:51 10° S 20:31:15 17° SE 20:35:19 10° E night (unlit)
02 May - 22:28:53 10° WSW 22:34:50 66° NW 22:43:55 10° NE night (unlit)
03 May - 00:36:01 10° WNW 00:41:14 17° NNW 00:47:41 10° N visible
03 May - 07:05:11 10° NNW 07:15:56 23° NNE 07:25:25 10° ENE daylight
03 May - 09:09:38 10° NW 09:23:55 66° NE 09:34:06 10° ESE daylight
03 May - 11:18:17 10° WNW 11:29:15 37° SW 11:37:03 10° SSE daylight
03 May - 19:56:55 10° SSE 19:58:46 12° SE 20:00:47 10° ESE night (unlit)
03 May - 21:56:35 10° SW 22:02:11 79° NW 22:10:38 10° NE night (unlit)
